Regional Weather Roundup
Issued by NWS

Home | Current Version | Previous Version | Graphics & Text | Print | Product List | Glossary Off
Versions: 1 2 3 4 5 6 7 8 9 10 11 12 13 14 15 16 17 18 19 20 21 22 23 24 25 26 27 28 29 30 31 32 33 34 35 36 37 38 39 40 41 42 43 44 45 46 47 48 49 50

000
ASUS43 KDTX 291101
RWRMI
MICHIGAN HOURLY REGIONAL WEATHER ROUNDUP
NATIONAL WEATHER SERVICE DETROIT/PONTIAC MI
700 AM EDT THU JUN 29 2017

NOTE: "FAIR" INDICATES FEW OR NO CLOUDS BELOW 12,000 FEET WITH NO
SIGNIFICANT WEATHER AND/OR OBSTRUCTION TO VISIBILITY.

MIZ047>049-052>055-059>063-066>070-074>076-081>083-291200-
SOUTHEAST LOWER MICHIGAN

CITY           SKY/WX    TMP DP  RH WIND       PRES   REMARKS
ADRIAN         CLOUDY    68  56  65 SW12      29.87F
ALMA           CLOUDY    65  64  96 S3        29.75R
ANN ARBOR      CLOUDY    66  57  72 S12       29.84F
BAD AXE        RAIN      64  60  88 S5        29.80F
CARO           PTCLDY    64  62  91 S5        29.77F
DETROIT CITY   CLOUDY    70  56  61 S14       29.85F
DETROIT        CLOUDY    69  56  62 S16       29.85F
FLINT          CLOUDY    68  58  70 S15G24    29.78F
GROSSE ILE     CLOUDY    70  57  63 SW10G16   29.86F
HILLSDALE      CLOUDY    63  55  77 S8        29.84F
HOWELL         CLOUDY    65  57  76 S10       29.80F

CITY           SKY/WX    TMP DP  RH WIND       PRES   REMARKS
JACKSON        CLOUDY    67  56  67 S17G24    29.82F
LAMBERTVILLE   CLOUDY    70  56  60 SW12G17   29.87F
LANSING        CLOUDY    66  60  81 S12       29.78F
LAPEER         FAIR      67  58  72 S8G18     29.81F
MASON          CLOUDY    65  60  84 S7        29.80F
MONROE         CLOUDY    70  56  60 SW7       29.87S
MT. CLEMENS    MOCLDY    71  56  61 S15       29.82S
PONTIAC        CLOUDY    67  58  72 S13       29.81F
PORT HOPE        N/A     65  60  84 SW7       29.78S
PORT HURON     PTCLDY    66  57  72 S8        29.84S
TRI CITIES     LGT RAIN  65  64  97 S8        29.77S
MIDLAND        LGT RAIN  64  62  91 CALM      29.75S
TROY           CLOUDY    70  53  54 S8G16     29.85F
SAGINAW HB     CLOUDY    64  59  82 S7        29.75F
$$
MIZ043>046-050>051-056>058-064>065-071>073-077>080-291200-
SOUTHWEST LOWER MICHIGAN

CITY           SKY/WX    TMP DP  RH WIND       PRES   REMARKS
BATTLE CREEK   MOCLDY    66  61  84 S14       29.79F
BENTON HARBOR  CLOUDY    68  63  84 S7        29.76R
BIG RAPIDS     CLOUDY    63  60  90 S3        29.72F
COLDWATER      PTCLDY    66  59  77 S10G16    29.82F
FREMONT        CLOUDY    65  63  94 S7        29.73S
HOLLAND        CLOUDY    67  63  87 S12       29.75R
GRAND RAPIDS   CLOUDY    66  63  90 S15       29.75S
IONIA          FAIR      66  61  85 S10G20    29.75S
KALAMAZOO      MOCLDY    66  60  81 S8        29.79F
LUDINGTON      CLOUDY    67  64  92 S9        29.68S
MARSHALL       MOCLDY    66  60  79 S8        29.80F
MOUNT PLEASANT PTCLDY    64  62  94 CALM      29.74R
MUSKEGON       CLOUDY    70  64  81 S15G30    29.72R
SOUTH HAVEN    CLOUDY    68  65  89 S6        29.77R
$$
MIZ016>042-291200-
NORTHERN LOWER MICHIGAN

CITY           SKY/WX    TMP DP  RH WIND       PRES   REMARKS
ALPENA         CLOUDY    62  61  96 SW6       29.74R
BELLAIRE       CLOUDY    64  61  91 S3        29.69S
CADILLAC       CLOUDY    62  61  96 SW10G16   29.72S
CHARLEVOIX     CLOUDY    64  64  99 S6        29.70S
FRANKFORT      CLOUDY    66  61  84 S9        29.68S
GAYLORD        CLOUDY    62  59  90 S9        29.72R
GRAYLING       RAIN      62  60  95 S5        29.73S
HARBOR SPRINGS CLOUDY    63  63 100 CALM      29.69S
HOUGHTON LAKE  CLOUDY    63  60  90 S6        29.74F
MANISTEE       CLOUDY    65  63  93 VRB5      29.68S
OSCODA         RAIN      63  61  93 SW7       29.75F
PELLSTON       LGT RAIN  62  60  93 SE5       29.68F
ROGERS CITY    LGT RAIN  62  59  93 S7        29.72F
TRAVERSE CITY  CLOUDY    65  62  90 SW3       29.67R
$$
MIZ007>008-015-291200-
EASTERN UPPER MICHIGAN

CITY           SKY/WX    TMP DP  RH WIND       PRES   REMARKS
KINROSS        LGT RAIN  59  59 100 SE10      29.69S FOG
MACKINAC ISLAN CLOUDY    60  60 100 SE5       29.68S FOG
NEWBERRY       CLOUDY    60  59  97 S7        29.66S FOG
S. S. MARIE    CLOUDY    60  58  92 E6        29.69S FOG
MUNISING         N/A     62  61  96 S6        29.60R
$$
MIZ004>006-011>014-085-291200-
CENTRAL UPPER MICHIGAN

CITY           SKY/WX    TMP DP  RH WIND       PRES   REMARKS
MANISTIQUE     CLOUDY    57  54  89 SW8       29.63F FOG
ESCANABA       CLOUDY    61  61 100 S5        29.61S FOG
MENOMINEE      CLOUDY    66  64  93 SW7       29.62R
SAWYER-GWINN   FOG       59  59 100 S10       29.61R VSB 0
$$
MIZ001>003-009>011-084-291200-
WESTERN UPPER MICHIGAN

CITY           SKY/WX    TMP DP  RH WIND       PRES   REMARKS
IRON MOUNTAIN  LGT RAIN  64  62  93 S7        29.58S FOG
HOUGHTON       FOG       56  55  97 E9        29.54F VSB<1/4
COPPER HARBOR    N/A     59  58  96 S8        29.56S
IRONWOOD       CLOUDY    58  56  93 W14       29.55R
$$

ABBREVIATIONS USED IN REMARKS
   TC - TEMPERATURE IN CELSIUS
  WCI - WIND CHILL INDEX
   HX - HEAT INDEX
  VSB - VISIBILITY




USA.gov is the U.S. government's official web portal to all federal, state and local government web resources and services.